Вернуться в каталог

SDA_1665

АктивенВоенныеPO
NORAD 65975·PAYLOAD·🇺🇸 United States

Запущен Oct 15, 2025 с Vandenberg Space Force Base

Loading…

Ближайшие Пролёты (ближайшие 24 часа)

TLE

СвежийSource: Space-Track

Эпоха: Sep 14, 2026, 15:14 UTC

1 65975U 25230B   26257.63505088  .00000139  00000-0  11823-3 0  9992
2 65975  81.3005 129.4036 0001006  63.5475 296.5783 13.82052525 46152

Отслеживайте SDA_1665 в реальном времени с AllMySat

Download on the App Store